Location: Bartshausen
(51.8454°N, 9.8167°E)
Time: 13:29:41
(UTC+00:00)

ACS3 Solar Sail - Visible Passes

Search period start: 14 February 2026 00:00
Search period end: 24 February 2026 00:00
Orbit: 899 x 968 km, 97.2° (Epoch: 13 February)

Date Brightness Start Highest point End Pass type
(mag) Time Alt. Az. Time Alt. Az. Time Alt. Az.
14 Feb 4.4 00:53:46 10° NNE 00:54:08 12° NNE 00:54:08 12° NNE visible
14 Feb 3.8 02:36:31 10° N 02:37:53 17° N 02:37:53 17° N visible
15 Feb 4.3 01:06:08 10° NNE 01:06:49 13° NNE 01:06:49 13° NNE visible
15 Feb 3.7 02:49:07 10° N 02:50:35 17° N 02:50:35 17° N visible
16 Feb 4.1 01:18:30 10° NNE 01:19:28 15° NNE 01:19:28 15° NNE visible
16 Feb 3.7 03:01:43 10° N 03:03:13 17° NNW 03:03:13 17° NNW visible
17 Feb 4.0 01:30:51 10° NNE 01:32:04 17° NNE 01:32:04 17° NNE visible
17 Feb 3.6 03:14:19 10° N 03:15:49 16° NNW 03:15:49 16° NNW visible
18 Feb 3.9 01:43:13 10° NNE 01:44:38 18° NNE 01:44:38 18° NNE visible
18 Feb 3.6 03:26:56 10° NNW 03:28:22 15° NNW 03:28:22 15° NNW visible
19 Feb 3.7 01:55:32 10° N 01:57:09 20° N 01:57:09 20° N visible
19 Feb 3.7 03:39:35 10° NNW 03:40:54 13° NNW 03:40:54 13° NNW visible
20 Feb 4.4 00:25:34 10° NNE 00:25:53 11° NNE 00:25:53 11° NNE visible
20 Feb 3.6 02:07:50 10° N 02:09:38 21° N 02:09:38 21° N visible
20 Feb 3.7 03:52:21 10° NNW 03:53:22 12° NNW 03:53:22 12° NNW visible
21 Feb 4.3 00:37:35 10° NNE 00:38:19 13° NNE 00:38:19 13° NNE visible
21 Feb 3.5 02:20:08 10° N 02:22:04 21° N 02:22:04 21° N visible
21 Feb 3.8 04:05:27 10° NNW 04:05:48 10° NW 04:05:48 10° NW visible
22 Feb 4.1 00:49:37 10° NNE 00:50:43 16° NNE 00:50:43 16° NNE visible
22 Feb 3.5 02:32:25 10° N 02:34:27 21° N 02:34:27 21° N visible
23 Feb 4.0 01:01:40 10° NNE 01:03:04 18° NNE 01:03:04 18° NNE visible
23 Feb 3.4 02:44:41 10° N 02:46:48 20° NNW 02:46:48 20° NNW visible
